SCP
0 0 0 0 0 0 0 0 0 0 0 0 0 0 0 0 0 0 0 0 0 0
0 0 0 0 0 0 0 0 0 0 0 0 0 0 0 0 0 0 0 0 0 0
0 0 0 0 0 0 0 0 0 0 0 0 0 0 0 0 0 0 0 0 0 0
0 0 0 0 0 0 0 0 0 0 0 0 0 0 0 0 0 0 0 0 0 0
0 0 0 0 0 0 0 0 0 0 0 0 0 0 0 0 0 0 0 0 0 0
0 0 0 0 0 0 0 0 0 0 0 0 0 0 0 0 0 0 0 0 0 0
0 0 0 0 0 0 0 0 0 0 0 0 0 0 0 0 0 0 0 0 0 0
0 0 0 0 0 0 0 0 0 0 0 0 0 0 0 0 0 0 0 0 0 0
0 0 0 0 0 0 0 0 0 0 0 0 0 0 0 0 0 0 0 0 0 0
0 0 0 0 0 0 0 0 0 0 0 0 0 0 0 0 0 0 0 0 0 0
0 0 0 0 0 0 0 0 0 0 0 0 0 0 0 0 0 0 0 0 0 0
0 0 0 0 0 0 0 0 0 0 0 0 0 0 0 0 0 0 0 0 0 0
0 0 0 0 0 0 0 0 0 0 0 0 0 0 0 0 0 0 0 0 0 0
0 0 0 0 0 0 0 0 0 0 0 0 0 0 0 0 0 0 0 0 0 0
Wind_Speed_500mb
75 83 85 84 79 76 74 71 69 68 67 65 63 62 60 63 62 61 60 55 54 51
67 67 70 70 69 69 69 70 68 66 65 66 64 65 58 57 57 57 57 60 56 53
66 63 61 60 59 58 58 58 58 60 63 65 64 58 55 54 56 55 54 57 54 51
44 43 43 45 48 49 50 53 55 55 55 54 52 50 49 55 48 51 53 51 50 48
32 35 37 38 41 42 43 44 44 45 46 45 44 46 49 52 53 52 51 55 53 49
27 29 31 33 35 37 38 39 41 43 44 42 45 49 53 52 54 54 55 55 53 50
26 27 30 33 36 39 41 43 45 46 47 48 51 54 56 55 58 58 57 53 51 49
36 38 40 41 42 44 47 49 50 53 54 57 60 60 60 60 60 58 56 54 53 51
43 44 48 51 52 52 53 56 59 60 61 62 63 62 62 63 61 59 58 56 54 51
59 60 59 59 61 63 63 64 66 67 67 66 65 64 65 65 60 58 59 58 56 54
66 71 72 73 72 70 70 70 70 70 69 69 69 69 69 64 62 63 63 61 59 55
57 67 73 80 82 80 76 75 75 73 73 72 73 73 71 68 69 68 68 66 64 61
57 59 68 73 80 82 81 80 78 77 76 75 75 75 74 73 74 73 71 68 65 62
54 58 63 68 74 80 82 83 81 81 79 78 77 77 76 74 74 75 73 71 68 64
Wind_Direction_500mb
247 245 247 248 247 244 244 246 249 251 253 255 256 254 248 240 243 243 245 244 244 251
243 244 245 244 243 243 245 248 251 251 254 256 254 256 245 240 241 242 242 244 248 254
237 238 240 242 244 245 246 247 250 252 253 254 253 246 239 241 237 243 245 245 249 253
238 239 239 240 241 244 248 250 250 248 247 246 244 239 238 236 239 242 243 249 249 249
234 239 242 245 248 247 245 242 240 240 243 244 238 233 237 240 239 243 246 245 246 248
255 251 246 246 246 245 243 244 243 241 239 237 232 232 236 239 240 241 241 243 244 240
269 264 261 256 251 248 246 244 243 241 238 238 238 239 240 241 241 242 242 240 236 233
283 273 263 256 251 249 247 244 241 240 239 239 240 241 241 243 243 242 238 234 231 227
282 283 273 267 261 255 251 249 245 242 241 241 243 244 243 243 242 239 235 230 226 224
273 273 267 261 257 254 251 249 247 246 244 243 242 242 242 240 236 232 228 225 224 223
270 269 264 259 255 253 253 252 250 249 248 246 243 242 239 233 228 224 224 224 224 224
275 270 268 265 262 259 256 254 252 249 246 244 243 240 235 228 225 224 224 223 223 224
272 269 267 265 263 261 258 257 253 250 246 242 240 237 235 229 226 224 223 222 223 224
279 274 270 267 262 258 256 255 251 248 244 241 237 235 234 232 230 227 226 224 224 223
Wind_Speed_850mb
75 83 85 84 79 76 74 71 69 68 67 65 63 62 60 63 62 61 60 55 54 51
67 67 70 70 69 69 69 70 68 66 65 66 64 65 58 57 57 57 57 60 56 53
66 63 61 60 59 58 58 58 58 60 63 65 64 58 55 54 56 55 54 57 54 51
44 43 43 45 48 49 50 53 55 55 55 54 52 50 49 55 48 51 53 51 50 48
32 35 37 38 41 42 43 44 44 45 46 45 44 46 49 52 53 52 51 55 53 49
27 29 31 33 35 37 38 39 41 43 44 42 45 49 53 52 54 54 55 55 53 50
26 27 30 33 36 39 41 43 45 46 47 48 51 54 56 55 58 58 57 53 51 49
36 38 40 41 42 44 47 49 50 53 54 57 60 60 60 60 60 58 56 54 53 51
43 44 48 51 52 52 53 56 59 60 61 62 63 62 62 63 61 59 58 56 54 51
59 60 59 59 61 63 63 64 66 67 67 66 65 64 65 65 60 58 59 58 56 54
66 71 72 73 72 70 70 70 70 70 69 69 69 69 69 64 62 63 63 61 59 55
57 67 73 80 82 80 76 75 75 73 73 72 73 73 71 68 69 68 68 66 64 61
57 59 68 73 80 82 81 80 78 77 76 75 75 75 74 73 74 73 71 68 65 62
54 58 63 68 74 80 82 83 81 81 79 78 77 77 76 74 74 75 73 71 68 64
Wind_Direction_850mb
247 245 247 248 247 244 244 246 249 251 253 255 256 254 248 240 243 243 245 244 244 251
243 244 245 244 243 243 245 248 251 251 254 256 254 256 245 240 241 242 242 244 248 254
237 238 240 242 244 245 246 247 250 252 253 254 253 246 239 241 237 243 245 245 249 253
238 239 239 240 241 244 248 250 250 248 247 246 244 239 238 236 239 242 243 249 249 249
234 239 242 245 248 247 245 242 240 240 243 244 238 233 237 240 239 243 246 245 246 248
255 251 246 246 246 245 243 244 243 241 239 237 232 232 236 239 240 241 241 243 244 240
269 264 261 256 251 248 246 244 243 241 238 238 238 239 240 241 241 242 242 240 236 233
283 273 263 256 251 249 247 244 241 240 239 239 240 241 241 243 243 242 238 234 231 227
282 283 273 267 261 255 251 249 245 242 241 241 243 244 243 243 242 239 235 230 226 224
273 273 267 261 257 254 251 249 247 246 244 243 242 242 242 240 236 232 228 225 224 223
270 269 264 259 255 253 253 252 250 249 248 246 243 242 239 233 228 224 224 224 224 224
275 270 268 265 262 259 256 254 252 249 246 244 243 240 235 228 225 224 224 223 223 224
272 269 267 265 263 261 258 257 253 250 246 242 240 237 235 229 226 224 223 222 223 224
279 274 270 267 262 258 256 255 251 248 244 241 237 235 234 232 230 227 226 224 224 223